PSBER TNCB-MUHA

Flight info

Callsign PSBER
Flight time N/A
Altitude 40000
Route VESKA1R VESKA UA315 PAP UA890 UCU J3 APRIK KAVUL5B
Aircraft CL60/M-SBDE1E2E3FGHIJ1J4J5J7M3RWXYZ/LB1V1D1

Departure

Time 2026-05-03 20:50
Airport Flamingo International Airport (TNCB)

Arrival

Time N/A
Airport José Martí International Airport (MUHA)
Time Latitude Longitude Altitude Speed Heading
2026-05-03 20:15 12.13275 -68.27986 20 ft 0 kts 112°
2026-05-03 20:48 12.13274 -68.27985 20 ft 1 kts 112°
2026-05-03 20:48 12.13261 -68.27966 20 ft 2 kts 148°
2026-05-03 20:48 12.13254 -68.27962 20 ft 1 kts 152°
2026-05-03 20:48 12.13221 -68.27959 20 ft 6 kts 181°
2026-05-03 20:49 12.13179 -68.27961 20 ft 6 kts 180°
2026-05-03 20:49 12.13134 -68.27962 20 ft 5 kts 181°
2026-05-03 20:49 12.13116 -68.27929 20 ft 4 kts 92°
2026-05-03 20:49 12.13115 -68.27882 20 ft 19 kts 92°
2026-05-03 20:50 12.13104 -68.27451 21 ft 98 kts 92°
2026-05-03 20:50 12.13064 -68.26540 212 ft 140 kts 92°
2026-05-03 20:50 12.12993 -68.25496 805 ft 153 kts 93°
2026-05-03 20:50 12.12912 -68.24380 1470 ft 164 kts 92°
2026-05-03 20:51 12.12793 -68.23110 2163 ft 190 kts 94°
2026-05-03 20:51 12.12670 -68.21639 2935 ft 215 kts 94°
2026-05-03 20:51 12.12549 -68.20011 3854 ft 233 kts 94°
2026-05-03 20:51 12.12447 -68.18282 4873 ft 246 kts 89°
2026-05-03 20:52 12.12843 -68.16512 5937 ft 259 kts 65°
2026-05-03 20:52 12.14037 -68.15074 6993 ft 272 kts 37°
2026-05-03 20:52 12.15889 -68.14406 8078 ft 284 kts 13°
2026-05-03 20:52 12.17932 -68.14070 9239 ft 288 kts 12°
2026-05-03 20:53 12.19959 -68.13730 10401 ft 289 kts 13°
2026-05-03 20:53 12.21962 -68.13392 11518 ft 290 kts 12°
2026-05-03 20:53 12.23992 -68.13049 12644 ft 290 kts 12°
2026-05-03 20:53 12.26053 -68.12699 13759 ft 290 kts 12°
2026-05-03 20:54 12.28024 -68.12364 14776 ft 289 kts 12°
2026-05-03 20:54 12.32555 -68.11582 15178 ft 354 kts 12°
2026-05-03 20:54 12.35159 -68.11134 15416 ft 379 kts 12°
2026-05-03 20:55 12.37899 -68.10664 15992 ft 390 kts 12°
2026-05-03 20:55 12.40710 -68.10181 16709 ft 396 kts 11°
2026-05-03 20:55 12.43553 -68.09865 17445 ft 403 kts
2026-05-03 20:55 12.46417 -68.10349 18210 ft 408 kts 342°
2026-05-03 20:56 12.49072 -68.11759 18976 ft 412 kts 326°
2026-05-03 20:56 12.51423 -68.13494 19708 ft 414 kts 324°
2026-05-03 20:56 12.53834 -68.15273 20495 ft 415 kts 324°
2026-05-03 20:56 12.56254 -68.17057 21290 ft 414 kts 323°
2026-05-03 20:57 12.58592 -68.18781 21988 ft 415 kts 323°
2026-05-03 20:57 12.61015 -68.20568 22649 ft 417 kts 323°
2026-05-03 20:57 12.63442 -68.22358 23223 ft 420 kts 323°
2026-05-03 20:57 12.65913 -68.24181 23832 ft 422 kts 323°
2026-05-03 20:58 12.68410 -68.26024 24442 ft 424 kts 323°
2026-05-03 20:58 12.70916 -68.27872 24946 ft 428 kts 323°
2026-05-03 20:58 12.73406 -68.29710 25513 ft 429 kts 323°
2026-05-03 20:58 12.75944 -68.31583 26052 ft 431 kts 323°
2026-05-03 20:59 12.78445 -68.33431 26499 ft 434 kts 323°
2026-05-03 20:59 12.80940 -68.35274 26962 ft 436 kts 323°
2026-05-03 20:59 12.83485 -68.37154 27391 ft 439 kts 323°
2026-05-03 20:59 12.86087 -68.39075 27817 ft 442 kts 323°
2026-05-03 21:00 12.88675 -68.40989 28202 ft 444 kts 323°
2026-05-03 21:00 12.90396 -68.42261 28500 ft 445 kts 323°
2026-05-03 21:00 12.93907 -68.44856 29109 ft 446 kts 323°
2026-05-03 21:00 12.96480 -68.46759 29498 ft 448 kts 323°
2026-05-03 21:01 12.99115 -68.48708 29893 ft 449 kts 323°
2026-05-03 21:01 13.01730 -68.50643 30355 ft 449 kts 323°
2026-05-03 21:01 13.04362 -68.52592 30817 ft 448 kts 323°
2026-05-03 21:01 13.06967 -68.54519 31295 ft 447 kts 323°
2026-05-03 21:02 13.09580 -68.56454 31760 ft 445 kts 322°
2026-05-03 21:02 13.12209 -68.58401 32200 ft 444 kts 323°
2026-05-03 21:02 13.14822 -68.60337 32594 ft 445 kts 323°
2026-05-03 21:02 13.17415 -68.62259 33020 ft 444 kts 322°
2026-05-03 21:03 13.20008 -68.64181 33478 ft 443 kts 322°
2026-05-03 21:03 13.22622 -68.66119 33993 ft 440 kts 322°
2026-05-03 21:03 13.25191 -68.68024 34498 ft 437 kts 322°
2026-05-03 21:03 13.27703 -68.69888 34982 ft 435 kts 322°
2026-05-03 21:04 13.30225 -68.71759 35391 ft 434 kts 322°
2026-05-03 21:04 13.32724 -68.73614 35770 ft 433 kts 322°
2026-05-03 21:04 13.35257 -68.75494 36210 ft 430 kts 322°
2026-05-03 21:04 13.37776 -68.77365 36546 ft 429 kts 322°
2026-05-03 21:05 13.40282 -68.79227 36844 ft 429 kts 322°
2026-05-03 21:05 13.42786 -68.81087 37148 ft 429 kts 323°
2026-05-03 21:05 13.45272 -68.82935 37468 ft 427 kts 322°
2026-05-03 21:05 13.47768 -68.84790 37728 ft 427 kts 322°
2026-05-03 21:06 13.50248 -68.86635 38009 ft 426 kts 322°
2026-05-03 21:06 13.52744 -68.88491 38290 ft 425 kts 322°
2026-05-03 21:06 13.55233 -68.90343 38594 ft 423 kts 322°
2026-05-03 21:06 13.57703 -68.92181 38858 ft 423 kts 322°
2026-05-03 21:07 13.60130 -68.93987 39097 ft 422 kts 322°
2026-05-03 21:07 13.62570 -68.95805 39298 ft 423 kts 322°
2026-05-03 21:07 13.65056 -68.97656 39537 ft 422 kts 322°
2026-05-03 21:07 13.67543 -68.99509 39737 ft 422 kts 323°
2026-05-03 21:08 13.70032 -69.01364 39922 ft 422 kts 323°
2026-05-03 21:08 13.72497 -69.03201 39919 ft 425 kts 323°
2026-05-03 21:08 13.77532 -69.06957 39922 ft 430 kts 322°
2026-05-03 21:09 13.82612 -69.10747 39930 ft 433 kts 323°
2026-05-03 21:09 13.87654 -69.14511 39924 ft 436 kts 322°
2026-05-03 21:10 13.92663 -69.18253 39927 ft 436 kts 322°
2026-05-03 21:10 13.97713 -69.22026 39927 ft 436 kts 322°
2026-05-03 21:11 14.02683 -69.25742 39930 ft 435 kts 322°
2026-05-03 21:11 14.07713 -69.29504 39939 ft 435 kts 322°
2026-05-03 21:12 14.12771 -69.33291 39934 ft 436 kts 322°
2026-05-03 21:12 14.17821 -69.37074 39943 ft 437 kts 322°
2026-05-03 21:13 14.22779 -69.40790 39945 ft 438 kts 322°
2026-05-03 21:13 14.27906 -69.44635 39932 ft 438 kts 323°
2026-05-03 21:14 14.32955 -69.48423 39915 ft 438 kts 323°
2026-05-03 21:14 14.38006 -69.52214 39926 ft 437 kts 322°
2026-05-03 21:15 14.43102 -69.56042 39920 ft 438 kts 322°
2026-05-03 21:15 14.48199 -69.59872 39928 ft 439 kts 322°
2026-05-03 21:16 14.53322 -69.63725 39919 ft 440 kts 322°
2026-05-03 21:16 14.58496 -69.67618 39923 ft 441 kts 322°
2026-05-03 21:17 14.62754 -69.70823 39927 ft 441 kts 323°
2026-05-03 21:17 14.68775 -69.75359 39927 ft 441 kts 322°
2026-05-03 21:18 14.73775 -69.79127 39932 ft 441 kts 322°
2026-05-03 21:18 14.78820 -69.82932 39927 ft 442 kts 322°
2026-05-03 21:19 14.83917 -69.86779 39937 ft 443 kts 322°
2026-05-03 21:19 14.89061 -69.90662 39948 ft 443 kts 323°
2026-05-03 21:20 14.94120 -69.94485 39948 ft 444 kts 323°
2026-05-03 21:20 14.99316 -69.98413 39948 ft 445 kts 322°
2026-05-03 21:21 15.04495 -70.02331 39950 ft 445 kts 322°
2026-05-03 21:21 15.09544 -70.06152 39946 ft 446 kts 322°
2026-05-03 21:22 15.14527 -70.09926 39948 ft 445 kts 322°
2026-05-03 21:22 15.19522 -70.13711 39946 ft 444 kts 322°
2026-05-03 21:23 15.24516 -70.17498 39946 ft 443 kts 322°
2026-05-03 21:23 15.29500 -70.21279 39945 ft 442 kts 322°
2026-05-03 21:24 15.34444 -70.25033 39945 ft 442 kts 322°
2026-05-03 21:24 15.39419 -70.28812 39942 ft 442 kts 322°
2026-05-03 21:25 15.44376 -70.32580 39951 ft 442 kts 322°
2026-05-03 21:25 15.49307 -70.36329 39951 ft 441 kts 322°
2026-05-03 21:26 15.54246 -70.40087 39956 ft 440 kts 322°
2026-05-03 21:26 15.59182 -70.43846 39955 ft 440 kts 322°
2026-05-03 21:27 15.64125 -70.47611 39952 ft 440 kts 322°
2026-05-03 21:27 15.69048 -70.51365 39954 ft 440 kts 322°
2026-05-03 21:28 15.73990 -70.55135 39955 ft 440 kts 322°
2026-05-03 21:28 15.78904 -70.58885 39954 ft 439 kts 322°
2026-05-03 21:29 15.83844 -70.62658 39957 ft 439 kts 322°
2026-05-03 21:29 15.88755 -70.66411 39964 ft 439 kts 322°
2026-05-03 21:30 15.93677 -70.70174 39970 ft 439 kts 322°
2026-05-03 21:30 15.98583 -70.73928 39970 ft 438 kts 322°
2026-05-03 21:31 16.03718 -70.77342 39966 ft 439 kts 328°
2026-05-03 21:31 16.08975 -70.80568 39967 ft 439 kts 327°
2026-05-03 21:32 16.14263 -70.83820 39969 ft 439 kts 327°
2026-05-03 21:32 16.19502 -70.87047 39967 ft 438 kts 327°
2026-05-03 21:33 16.24744 -70.90278 39971 ft 438 kts 327°
2026-05-03 21:33 16.29990 -70.93515 39969 ft 439 kts 327°
2026-05-03 21:34 16.35255 -70.96766 39969 ft 438 kts 327°
2026-05-03 21:34 16.40502 -71.00008 39968 ft 437 kts 327°
2026-05-03 21:35 16.45738 -71.03247 39969 ft 437 kts 327°
2026-05-03 21:35 16.50970 -71.06486 39968 ft 436 kts 327°
2026-05-03 21:36 16.56175 -71.09710 39965 ft 436 kts 327°
2026-05-03 21:36 16.61381 -71.12936 39961 ft 435 kts 327°
2026-05-03 21:37 16.66561 -71.16149 39960 ft 435 kts 327°
2026-05-03 21:37 16.71758 -71.19376 39959 ft 434 kts 327°
2026-05-03 21:38 16.76948 -71.22598 39968 ft 434 kts 327°
2026-05-03 21:38 16.82147 -71.25830 39974 ft 433 kts 327°
2026-05-03 21:39 16.87305 -71.29037 39969 ft 432 kts 327°
2026-05-03 21:39 16.92469 -71.32252 39974 ft 432 kts 327°
2026-05-03 21:40 16.97659 -71.35487 39979 ft 431 kts 327°
2026-05-03 21:40 17.02802 -71.38693 39973 ft 431 kts 327°
2026-05-03 21:41 17.07951 -71.41907 39963 ft 431 kts 327°
2026-05-03 21:41 17.11850 -71.44342 39966 ft 431 kts 327°